Location: Bremen
(53.0793°N, 8.8017°E)
Time: 08:44:01
(UTC+01:00)

Explorer 7 - Pass Details

Date: 28 November 2021
Orbit: 483 x 674 km, 50.3° (Epoch: 17 January)

Event Time Altitude Azimuth Distance (km) Brightness Sun altitude
Rises 07:30:18 0° 192° (SSW) 2,736 10.6 -6.0°
Reaches altitude 10° 07:34:06 10° 157° (SSE) 1,792 10.3 -5.5°
Maximum altitude 07:35:19 11° 140° (SE) 1,702 10.7 -5.4°
Drops below altitude 10° 07:36:32 10° 122° (ESE) 1,763 11.3 -5.2°
Sets 07:40:10 0° 86° (E) 2,612 11.3 -4.8°
